Simultaneous Nadir Overpasses (SNOs) Predictions

Prediction of SNOs between LANDSAT-8 and NOAA-19 Satellite Orbit:

Table of predicted SNOs for the next 14.0 days since TLE Epoch: 1/17/2014
Index Date (LANDSAT-8) Time (LANDSAT-8) Lat,Lon (LANDSAT-8) SZA (LANDSAT-8 ) Date (NOAA-19) Time (NOAA-19) Lat,Lon (NOAA-19) SZA (NOAA-19 ) Distance(km) Time Diff (sec)
1 01/18/2014 13:59:22 71.52, -31.13 91.93 01/18/2014 13:58:22 71.49, -31.11 91.91 3.39 60
2 01/18/2014 14:48:52 -71.39, 136.30 88.20 01/18/2014 14:49:16 -71.41, 136.30 88.18 1.69 24
3 01/20/2014 18:43:41 71.60,-102.09 91.55 01/20/2014 18:42:29 71.62,-102.35 91.58 9.41 72
4 01/20/2014 19:33:12 -71.42, 65.26 88.63 01/20/2014 19:33:21 -71.44, 65.25 88.62 1.89 9
5 01/22/2014 23:27:53 72.18,-172.19 91.62 01/22/2014 23:26:45 72.21,-174.49 91.71 78.40 68
6 01/23/2014 00:17:34 -71.47, -5.77 89.08 01/23/2014 00:17:26 -71.47, -5.82 89.07 1.91 8
7 01/23/2014 01:07:13 70.73, 160.71 90.20 01/23/2014 01:08:20 70.72, 162.72 90.14 73.72 67
8 01/25/2014 05:01:59 -71.48, -76.87 89.60 01/25/2014 05:01:30 -71.46, -76.80 89.61 2.74 29
9 01/25/2014 05:51:26 71.39, 90.64 90.32 01/25/2014 05:52:37 71.38, 90.57 90.30 2.76 71
10 01/27/2014 09:46:26 -71.50,-147.95 90.13 01/27/2014 09:45:35 -71.51,-147.88 90.11 2.88 51
11 01/27/2014 10:35:53 71.42, 19.56 89.79 01/27/2014 10:36:42 71.43, 19.48 89.80 3.30 49
12 01/29/2014 14:30:54 -71.59, 141.07 90.62 01/29/2014 14:29:41 -71.61, 140.94 90.58 5.35 73
13 01/29/2014 15:20:22 71.46,
